Location: Kermapucano
(48.0667°N, 3.3000°W)
Time: 19:54:42
(UTC+00:00)

ADEOS - Pass Details

Date: 29 November 2020
Orbit: 792 x 795 km, 98.9° (Epoch: 27 January)

Event Time Altitude Azimuth Distance (km) Brightness Sun altitude
Rises 06:06:36 0° 6° (N) 3,311 6.7 -15.1°
Reaches altitude 10° 06:09:11 10° 356° (N) 2,376 5.8 -14.6°
Maximum altitude 06:13:38 29° 298° (WNW) 1,430 4.3 -13.9°
Drops below altitude 10° 06:18:03 10° 240° (WSW) 2,361 5.6 -13.2°
Sets 06:20:37 0° 229° (SW) 3,286 6.5 -12.8°
